Location: Amarillo Post Office Jordan Station
(35.1907°N, 101.9342°W)
Time: 13:05:44
(UTC+00:00)

SL-16 R/B - Pass Details

Date: 24 January 2021
Orbit: 839 x 850 km, 71.0° (Epoch: 04 March)

Event Time Altitude Azimuth Distance (km) Brightness Sun altitude
Rises 12:36:39 0° 207° (SSW) 3,377 5.2 -15.5°
Reaches altitude 10° 12:39:06 10° 210° (SSW) 2,446 4.4 -15.0°
Maximum altitude 12:44:40 68° 292° (WNW) 906 2.1 -13.9°
Drops below altitude 10° 12:50:19 10° 16° (NNE) 2,466 4.6 -12.7°
Sets 12:52:47 0° 19° (NNE) 3,406 5.4 -12.3°
